Home   Weather   Nizhny Novgorod   Past weeks

Flag for Russia Past Weather in Nizhny Novgorod, Russia — Yesterday and Last 2 Weeks

34 °F

Passing clouds.

Feels Like: 34 °F
Forecast: 28 / 39 °F
Wind: No wind

Location: Nizhny Novgorod/Strigino

Current Time: Oct 22, 2016 at 2:42:17 AM

Latest Report: Oct 22, 2016 at 2:00 AM

Visibility: N/A

Pressure: 30.69 "Hg

Humidity: 93%

Dew Point: 32 °F

Location of Nizhny NovgorodLocation

Past Weather in Nizhny Novgorod — Graph


Nizhny Novgorod Temperature Yesterday

Maximum temperature yesterday: 43 °F (at 11:30 AM)
Minimum temperature yesterday: 34 °F (at 11:00 PM)
Average temperature yesterday: 38 °F

High & Low Weather Summary for the Past Weeks

High50 °F (Oct 8, 11:30 AM)100% (Oct 8, 4:00 AM)30.69 "Hg (Oct 8, 4:00 AM)
Low28 °F (Oct 17, 1:30 AM)49% (Oct 11, 12:00 PM)30.12 "Hg (Oct 7, 11:30 PM)
Average39 °F83%30.39 "Hg
* Reported Oct 7 1:00 AM — Oct 22 1:30 AM, Nizhny Novgorod, Weather by CustomWeather, © 2016

Note: Actual official high and low records may vary slightly from our data, if they occured in-between our weather recording intervals... More about our weather records


Nizhny Novgorod Weather History for the Previous 24 Hours

Scroll right to see more
Time TempWeatherWind HumidityBarometerVisibility
1:30 AM
Sat, Oct 22
34 °FClear.No wind87%30.69 "Hg10 mi
1:00 AM36 °FClear.1 mph87%30.69 "Hg10 mi
12:30 AM34 °FClear.1 mph93%30.69 "Hg10 mi
12:00 AM34 °FClear.No wind93%30.69 "Hg10 mi
11:30 PM
Fri, Oct 21
34 °FClear.No wind93%30.69 "Hg10 mi
11:00 PM34 °FPassing clouds.No wind87%30.69 "HgN/A
10:30 PM36 °FPassing clouds.1 mph81%30.69 "HgN/A
10:00 PM37 °FPassing clouds.1 mph81%30.69 "HgN/A
9:30 PM36 °FPassing clouds.1 mph87%30.69 "HgN/A
9:00 PM36 °FPassing clouds.1 mph87%30.66 "HgN/A
8:30 PM36 °FPassing clouds.1 mph87%30.66 "HgN/A
8:00 PM36 °FPassing clouds.No wind87%30.66 "HgN/A
7:30 PM36 °FPassing clouds.No wind87%30.66 "HgN/A
7:00 PM36 °FPassing clouds.No wind87%30.66 "HgN/A
6:30 PM36 °FPassing clouds.No wind87%30.66 "HgN/A
6:00 PM36 °FPassing clouds.No wind87%30.66 "HgN/A
5:30 PM37 °FPassing clouds.No wind81%30.66 "HgN/A
5:00 PM37 °FPassing clouds.No wind75%30.66 "HgN/A
4:30 PM39 °FScattered clouds.No wind70%30.66 "HgN/A
4:00 PM41 °FScattered clouds.1 mph66%30.66 "HgN/A
3:30 PM41 °FScattered clouds.1 mph61%30.66 "HgN/A
3:00 PM41 °FScattered clouds.3 mph61%30.63 "HgN/A
2:30 PM43 °FScattered clouds.3 mph53%30.63 "HgN/A
2:00 PM43 °FScattered clouds.1 mph57%30.63 "HgN/A
1:30 PM43 °FScattered clouds.3 mph61%30.63 "HgN/A
1:00 PM43 °FScattered clouds.3 mph61%30.63 "HgN/A
12:30 PM43 °FScattered clouds.3 mph61%30.63 "HgN/A
12:00 PM43 °FScattered clouds.1 mph66%30.63 "HgN/A
11:30 AM43 °FScattered clouds.No wind71%30.63 "HgN/A
11:00 AM41 °FScattered clouds.No wind81%30.63 "Hg6 mi
10:00 AM39 °FScattered clouds.1 mph93%30.63 "Hg6 mi
9:30 AM39 °FScattered clouds.No wind100%30.63 "Hg6 mi
9:00 AM39 °FPartly sunny.No wind93%30.63 "Hg4 mi
8:30 AM37 °FPartly sunny.No wind100%30.63 "Hg4 mi
8:00 AM37 °FOvercast.No wind100%30.63 "Hg4 mi
7:30 AM37 °FLow clouds.1 mph100%30.60 "Hg6 mi
7:00 AM36 °FFog.No wind100%30.60 "Hg2 mi
6:30 AM36 °FFog.No wind100%30.60 "Hg1 mi
6:00 AM36 °FChilly.No wind100%30.60 "Hg1 mi
5:30 AM36 °FFog.No wind93%30.60 "Hg2 mi
5:00 AM36 °FFog.No wind100%30.60 "Hg3 mi
4:30 AM36 °FChilly.No wind100%30.60 "Hg3 mi
4:00 AM36 °FFog.No wind100%30.60 "Hg3 mi
3:30 AM36 °FFog.No wind100%30.60 "Hg2 mi
3:00 AM36 °FChilly.No wind100%30.60 "Hg2 mi
2:30 AM37 °FFog.No wind100%30.60 "Hg3 mi
2:00 AM37 °FLight rain. Passing clouds.No wind100%30.60 "Hg4 mi
Weather by CustomWeather, © 2016

See weather overviewHow to use our weather pages